Find Local Weather

World > North America > United States > Nebraska

Omaha, Nebraska Regional Weather

Lat: 41.26N, Lon: 96.01W
Wx Zone: NEZ052
Warning FLW WEATHER ALERT - (More Info. Click Here) Warning
Feedback

Omaha, NE Regional Weather

Expires:201903211100;;693830
ASUS43 KOAX 211003
RWRNE 

WEATHER ROUNDUP FOR NEBRASKA
NATIONAL WEATHER SERVICE OMAHA NE
500 AM CDT THU MAR 21 2019

NOTES: SATELLITE DATA IS BEING USED TO AUGMENT CLOUD COVER ABOVE
       12000 FEET.
       "FAIR" INDICATES FEW OR NO CLOUDS BELOW 12,000 FEET WITH NO
       SIGNIFICANT WEATHER AND/OR OBSTRUCTIONS TO VISIBILITY.

   

NEZ044-045-051>053-067-211100-
OMAHA AREA
  
CITY           SKY/WX    TMP DP  RH WIND       PRES   REMARKS
OMAHA EPPLEY   MOCLDY    35  30  82 NW9       30.20R WCI  28          
BLAIR          FAIR      32  30  92 NW3       30.19R                  
FREMONT        FAIR      31  30  96 NW6       30.21S WCI  25          
MILLARD        FAIR      34  31  91 NW8       30.21R WCI  27          
OFFUTT AFB     CLEAR     32  28  86 W8        30.20F WCI  25          
PLATTSMOUTH    FAIR      32  31  96 NW9       30.19R WCI  24          
WAHOO          FAIR      31  31  99 NW9       30.21F WCI  23          
$$
  

SKY/WX - Weather  TMP - Temperature  DP - Dew Point  RH - Relative Humidity
WIND - Wind Direction/Speed PRES - Barometric Pressure VSB - Visibility
WCI - Wind Chill Index E13G22 Wind - East Wind 13 mph/Gusts of 22 mph